N2OZI Weather Reports


time (UTC)temp
C
wind
direction
speed
KPH
gust
KPH
rain 1hr
cm
rain 24hr
cm
rain mn
cm
humidity
%
barometer
mb
20260505225814 10 227 1.6 17.7 0.33 1.12 1.04 92 1008.2
20260505225337 11 269 8.0 17.7 0.30 1.07 0.99 92 1008.6
20260505224830 11 243 3.2 11.3 0.30 1.04 0.97 92 1008.6
20260505224314 11 239 1.6 4.8 0.30 1.02 0.94 93 1008.3
20260505223832 11 244 1.6 6.4 0.28 0.99 0.91 92 1008.3
20260505223336 11 244 3.2 6.4 0.33 0.99 0.91 92 1008.1
20260505222848 11 247 1.6 8.0 0.33 0.97 0.89 92 1008.1
20260505222330 11 246 4.8 8.0 0.38 0.94 0.86 92 1008.2
20260505221815 11 245 3.2 9.7 0.41 0.91 0.84 92 1008.4
20260505221321 11 234 3.2 14.5 0.46 0.91 0.84 92 1008.4
20260505220819 11 234 4.8 14.5 0.46 0.86 0.79 91 1008.5
20260505220319 11 225 3.2 12.9 0.46 0.81 0.74 92 1008.5
20260505215836 11 238 3.2 16.1 0.46 0.79 0.71 91 1008.3
20260505215319 11 225 6.4 14.5 0.46 0.76 0.69 91 1008.4
20260505214816 11 254 6.4 14.5 0.46 0.74 0.66 91 1008.3
20260505214318 11 252 6.4 14.5 0.46 0.71 0.64 91 1008.2
20260505213837 11 240 6.4 17.7 0.43 0.69 0.61 91 1008.2
20260505213339 11 237 8.0 17.7 0.43 0.66 0.58 91 1008.3
20260505212833 11 225 8.0 19.3 0.41 0.61 0.53 90 1008.3
20260505212317 12 259 8.0 25.7 0.33 0.53 0.46 90 1008.3
20260505211854 12 281 11.3 25.7 0.30 0.51 0.43 90 1008.3
20260505211335 12 264 12.9 22.5 0.23 0.43 0.36 89 1008.1
20260505210827 12 244 9.7 22.5 0.20 0.41 0.33 89 1008.1
20260505210349 12 283 8.0 19.3 0.15 0.36 0.28 89 1008.0
20260505205823 12 242 8.0 19.3 0.13 0.33 0.25 88 1007.9
20260505205326 12 257 9.7 16.1 0.10 0.30 0.23 87 1007.8
20260505204841 12 247 4.8 22.5 0.08 0.28 0.20 87 1007.7
20260505204317 13 254 4.8 22.5 0.05 0.25 0.18 86 1007.7
20260505203816 13 248 8.0 17.7 0.03 0.23 0.15 85 1007.7
20260505203339 13 238 9.7 16.1 0.03 0.23 0.15 84 1007.6
20260505202831 13 241 4.8 17.7 0.00 0.20 0.13 83 1007.5
20260505202334 13 283 8.0 22.5 0.00 0.20 0.13 82 1007.4
20260505201846 13 246 11.3 22.5 0.00 0.20 0.13 80 1007.5
20260505201331 13 261 6.4 16.1 0.00 0.20 0.13 80 1007.3
20260505200818 13 234 6.4 17.7 0.00 0.20 0.13 80 1007.1
20260505200322 14 238 6.4 17.7 0.00 0.20 0.13 81 1006.9
20260505195838 14 236 6.4 17.7 0.00 0.20 0.13 80 1007.1
20260505195339 14 244 6.4 22.5 0.00 0.20 0.13 80 1007.3
20260505194855 14 247 6.4 22.5 0.00 0.20 0.13 80 1007.3
20260505194317 14 244 6.4 17.7 0.00 0.20 0.13 80 1007.4
20260505193833 14 281 9.7 20.9 0.00 0.20 0.13 80 1007.5
20260505193317 14 229 9.7 24.1 0.00 0.20 0.13 80 1007.4
20260505192816 14 237 11.3 24.1 0.00 0.20 0.13 81 1007.4
20260505192337 14 216 11.3 17.7 0.00 0.20 0.13 81 1007.2
20260505191851 14 221 8.0 16.1 0.00 0.20 0.13 81 1007.3
20260505191316 14 266 6.4 14.5 0.00 0.20 0.13 81 1007.2
20260505190830 14 270 8.0 20.9 0.00 0.20 0.13 81 1007.4
20260505190314 14 254 11.3 30.6 0.00 0.20 0.13 80 1007.3
20260505185832 14 282 14.5 30.6 0.00 0.20 0.13 80 1007.4
20260505185359 14 263 11.3 29.0 0.00 0.20 0.13 80 1007.3
20260505184831 14 228 12.9 22.5 0.00 0.20 0.13 80 1007.0
20260505184337 14 292 9.7 24.1 0.00 0.20 0.13 79 1007.1
20260505183815 15 273 12.9 27.4 0.00 0.20 0.13 78 1007.4
20260505183337 15 237 16.1 27.4 0.00 0.20 0.13 77 1007.5
20260505182856 15 252 14.5 24.1 0.00 0.20 0.13 76 1007.5
20260505182336 15 279 12.9 24.1 0.00 0.20 0.13 76 1007.4
20260505181831 15 293 11.3 22.5 0.00 0.20 0.13 76 1007.1
20260505181335 15 239 12.9 27.4 0.00 0.20 0.13 75 1007.0
20260505180818 16 258 17.7 27.4 0.00 0.20 0.13 74 1007.1
20260505180318 16 232 16.1 32.2 0.00 0.20 0.13 74 1007.0
20260505175835 16 263 17.7 38.6 0.00 0.20 0.13 73 1006.8
20260505175337 16 265 19.3 38.6 0.00 0.20 0.13 72 1006.8
20260505174832 16 294 14.5 32.2 0.00 0.20 0.13 74 1006.8
20260505174314 15 265 12.9 22.5 0.00 0.20 0.13 75 1006.6
20260505173829 15 251 8.0 19.3 0.00 0.20 0.13 76 1006.4
20260505173335 15 230 8.0 20.9 0.00 0.20 0.13 77 1006.4
20260505172814 14 272 8.0 20.9 0.00 0.20 0.13 77 1006.4
20260505172319 14 257 6.4 17.7 0.00 0.20 0.13 77 1006.5
20260505171836 14 227 6.4 16.1 0.00 0.20 0.13 77 1006.5
20260505171319 14 236 9.7 17.7 0.00 0.20 0.13 76 1006.6
20260505170831 14 199 6.4 24.1 0.00 0.20 0.13 76 1006.6
20260505170336 14 247 9.7 24.1 0.00 0.20 0.13 74 1006.6
20260505165829 15 256 9.7 22.5 0.00 0.20 0.13 74 1006.6
20260505165334 15 287 11.3 25.7 0.00 0.20 0.13 73 1006.4
20260505164821 15 292 12.9 24.1 0.00 0.20 0.13 72 1006.4
20260505164324 16 238 14.5 27.4 0.00 0.20 0.13 69 1006.2
20260505163820 17 242 14.5 30.6 0.00 0.20 0.13 65 1005.9
20260505163323 18 250 17.7 30.6 0.00 0.20 0.13 66 1005.7
20260505162830 18 280 11.3 22.5 0.00 0.20 0.13 68 1005.6
20260505162332 18 238 11.3 20.9 0.00 0.20 0.13 68 1005.4
20260505161826 17 267 11.3 20.9 0.00 0.20 0.13 68 1005.2
20260505161328 17 237 6.4 14.5 0.00 0.20 0.13 72 1004.9
20260505160822 16 240 3.2 17.7 0.00 0.20 0.13 73 1005.1
20260505160327 15 245 6.4 20.9 0.00 0.20 0.13 74 1005.4
20260505153325 18 238 9.7 33.8 0.00 0.20 0.13 63 1005.6
20260505152820 18 246 17.7 33.8 0.00 0.20 0.13 62 1005.5
20260505152322 18 232 11.3 32.2 0.00 0.20 0.13 63 1005.5
20260505151838 18 260 14.5 32.2 0.00 0.20 0.13 63 1005.6
20260505151319 18 229 11.3 30.6 0.00 0.20 0.13 63 1005.5
20260505150830 18 251 16.1 43.5 0.00 0.20 0.13 62 1005.5
20260505150328 18 203 25.7 43.5 0.00 0.20 0.13 61 1005.3
20260505140342 19 197 8.0 20.9 0.00 0.20 0.13 60 1004.1
20260505124833 19 238 12.9 32.2 0.00 0.20 0.13 61 1003.8
20260505124336 19 244 8.0 24.1 0.00 0.20 0.13 62 1003.7
20260505123829 19 235 8.0 25.7 0.00 0.20 0.13 62 1003.6
20260505123332 18 235 6.4 30.6 0.00 0.20 0.13 62 1003.7
20260505122820 18 186 8.0 29.0 0.00 0.20 0.13 63 1003.5
20260505122342 18 220 11.3 19.3 0.00 0.20 0.13 62 1003.5
20260505121902 18 240 6.4 29.0 0.00 0.20 0.13 62 1003.4
20260505121317 18 202 8.0 20.9 0.00 0.20 0.13 63 1003.3
20260505120835 18 144 8.0 20.9 0.00 0.20 0.13 63 1003.4
20260505120335 18 186 9.7 22.5 0.00 0.20 0.13 63 1003.4
20260505115828 18 172 8.0 29.0 0.00 0.20 0.13 63 1003.4
20260505115332 18 183 11.3 30.6 0.00 0.20 0.13 63 1003.3
20260505114823 18 151 11.3 30.6 0.00 0.20 0.13 62 1003.3
20260505114328 18 205 8.0 38.6 0.00 0.20 0.13 62 1003.1
20260505113837 18 205 12.9 38.6 0.00 0.20 0.13 62 1003.1
20260505113358 18 188 11.3 29.0 0.00 0.20 0.13 63 1002.9
20260505112830 18 207 12.9 27.4 0.00 0.20 0.13 63 1002.9
20260505112315 18 176 12.9 27.4 0.00 0.20 0.13 63 1002.7
20260505111832 18 163 9.7 33.8 0.00 0.20 0.13 63 1002.7
20260505111336 18 292 8.0 43.5 0.00 0.20 0.13 63 1002.7
20260505110829 18 194 17.7 43.5 0.00 0.20 0.13 62 1002.5
20260505110333 18 195 8.0 35.4 0.00 0.20 0.13 63 1002.5
20260505101847 18 200 11.3 22.5 0.00 0.20 0.13 63 1001.9
20260505101350 18 233 9.7 27.4 0.00 0.20 0.13 63 1002.0
20260505100819 18 165 11.3 29.0 0.00 0.20 0.13 63 1001.9
20260505100323 18 200 11.3 29.0 0.00 0.20 0.13 63 1001.8
20260505095820 18 180 9.7 32.2 0.03 0.20 0.13 64 1001.6
20260505095320 18 176 11.3 32.2 0.03 0.20 0.13 63 1001.6
20260505094832 18 184 9.7 29.0 0.03 0.20 0.13 64 1001.8
20260505094337 18 167 12.9 41.8 0.03 0.20 0.13 63 1001.6
20260505093830 18 190 16.1 41.8 0.03 0.20 0.13 63 1001.7
20260505093334 18 195 11.3 27.4 0.03 0.20 0.13 63 1001.7
20260505092848 18 132 9.7 29.0 0.03 0.20 0.13 63 1001.7
20260505092351 18 130 12.9 33.8 0.03 0.20 0.13 63 1001.6
20260505091819 18 157 8.0 35.4 0.03 0.20 0.13 63 1001.8
20260505091324 18 186 12.9 35.4 0.03 0.20 0.13 63 1001.8
20260505090825 18 159 11.3 35.4 0.03 0.20 0.13 63 1001.7
20260505090328 18 150 8.0 38.6 0.03 0.20 0.13 63 1001.7
20260505085821 18 217 19.3 38.6 0.00 0.18 0.10 63 1001.7
20260505085322 18 163 9.7 29.0 0.00 0.18 0.10 64 1001.6
20260505084816 18 182 11.3 27.4 0.00 0.18 0.10 64 1001.6
20260505084339 18 174 9.7 30.6 0.00 0.18 0.10 64 1001.5
20260505083818 18 161 16.1 32.2 0.00 0.18 0.10 64 1001.5
20260505083320 18 128 9.7 35.4 0.00 0.18 0.10 64 1001.4
20260505082839 18 151 11.3 35.4 0.00 0.18 0.10 64 1001.3
20260505082358 18 129 9.7 32.2 0.00 0.18 0.10 64 1001.4
20260505081831 18 155 12.9 29.0 0.00 0.18 0.10 64 1001.4
20260505081316 18 159 11.3 29.0 0.00 0.18 0.10 64 1001.4
20260505080834 18 173 9.7 25.7 0.00 0.18 0.10 64 1001.5
20260505080337 18 181 9.7 33.8 0.00 0.18 0.10 65 1001.4
20260505075831 18 182 9.7 33.8 0.00 0.18 0.10 65 1001.5
20260505075315 18 178 8.0 32.2 0.00 0.18 0.10 65 1001.5
20260505074814 18 234 12.9 24.1 0.03 0.18 0.10 66 1001.4
20260505074319 18 153 11.3 27.4 0.03 0.18 0.10 66 1001.4
20260505073833 18 189 12.9 29.0 0.03 0.18 0.10 67 1001.5
20260505073315 17 169 12.9 27.4 0.03 0.18 0.10 68 1001.5
20260505072831 17 171 8.0 29.0 0.03 0.18 0.10 69 1001.3
20260505072314 17 199 9.7 35.4 0.03 0.18 0.10 70 1001.4
20260505071833 17 201 11.3 35.4 0.03 0.18 0.10 72 1001.4
20260505071316 16 178 8.0 24.1 0.03 0.18 0.10 75 1001.5
20260505070834 16 169 4.8 14.5 0.03 0.18 0.10 76 1001.6
20260505070338 17 195 4.8 14.5 0.03 0.18 0.10 75 1001.7
20260505065830 17 225 6.4 25.7 0.03 0.18 0.10 73 1001.9
20260505065353 17 167 9.7 37.0 0.03 0.18 0.10 70 1002.2
20260505064825 18 219 11.3 37.0 0.00 0.15 0.08 67 1002.3
20260505064349 18 241 8.0 30.6 0.00 0.15 0.08 62 1002.3
20260505063819 18 166 12.9 30.6 0.00 0.15 0.08 62 1002.1
20260505063344 18 211 11.3 29.0 0.00 0.15 0.08 63 1002.0
20260505062821 18 130 8.0 29.0 0.00 0.15 0.08 64 1002.3
20260505062314 18 196 11.3 32.2 0.00 0.15 0.08 63 1002.2
20260505061833 18 132 16.1 32.2 0.00 0.15 0.08 63 1002.1
20260505061355 18 263 12.9 35.4 0.00 0.15 0.08 64 1002.0
20260505060848 18 186 14.5 35.4 0.03 0.15 0.08 64 1001.8
20260505060331 18 147 14.5 32.2 0.03 0.15 0.08 65 1002.0
20260505055822 18 173 9.7 27.4 0.03 0.15 0.08 66 1002.0
20260505055321 17 167 9.7 38.6 0.03 0.15 0.08 68 1002.0
20260505054840 17 167 12.9 38.6 0.03 0.15 0.08 68 1002.0
20260505054337 17 169 11.3 33.8 0.03 0.15 0.08 71 1002.2
20260505053829 16 146 12.9 37.0 0.03 0.15 0.08 74 1002.2
20260505053333 15 156 11.3 37.0 0.03 0.15 0.08 79 1002.4
20260505052846 15 173 3.2 9.7 0.03 0.15 0.08 83 1002.5
20260505052347 15 184 0.0 6.4 0.03 0.15 0.08 84 1002.8
20260505051821 15 184 3.2 6.4 0.05 0.15 0.08 85 1002.8
20260505051321 14 209 1.6 8.0 0.08 0.15 0.08 86 1003.0
20260505050818 14 186 3.2 11.3 0.05 0.13 0.05 87 1003.1
20260505050338 14 215 4.8 11.3 0.05 0.13 0.05 87 1003.1
20260505041316 16 245 9.7 24.1 0.00 0.08 0.00 67 1004.7
20260505040834 17 247 14.5 25.7 0.00 0.08 0.00 64 1004.5
20260505040334 17 249 12.9 29.0 0.00 0.08 0.00 63 1004.3
20260505035814 18 237 16.1 29.0 0.00 0.08 0.08 62 1004.0
20260505035318 18 273 12.9 29.0 0.00 0.08 0.08 62 1003.9
20260505034815 18 260 9.7 30.6 0.00 0.08 0.08 61 1003.8
20260505034338 18 192 11.3 30.6 0.00 0.08 0.08 60 1003.4
20260505033831 18 149 4.8 20.9 0.00 0.08 0.08 61 1003.3
20260505033313 18 187 12.9 27.4 0.00 0.08 0.08 60 1003.1
20260505032833 18 262 12.9 27.4 0.00 0.08 0.08 60 1003.0
20260505032317 18 186 9.7 29.0 0.00 0.08 0.08 61 1002.6
20260505031831 18 186 12.9 30.6 0.00 0.08 0.08 61 1002.8
20260505031315 18 184 9.7 30.6 0.00 0.08 0.08 61 1002.8
20260505030828 18 128 11.3 33.8 0.00 0.08 0.08 62 1002.6
20260505030332 18 163 9.7 27.4 0.00 0.08 0.08 63 1002.7
20260505025818 18 131 8.0 22.5 0.00 0.08 0.08 63 1002.8
20260505025319 18 172 8.0 27.4 0.00 0.08 0.08 64 1002.8
20260505024839 18 164 8.0 27.4 0.00 0.08 0.08 64 1002.8
20260505024337 18 145 8.0 17.7 0.00 0.08 0.08 65 1002.9
20260505023851 18 188 6.4 19.3 0.00 0.08 0.08 65 1002.8
20260505023333 18 124 8.0 19.3 0.03 0.08 0.08 66 1002.9
20260505022823 18 146 8.0 17.7 0.03 0.08 0.08 66 1002.9
20260505022326 17 154 6.4 17.7 0.03 0.08 0.08 67 1003.0
20260505021813 17 213 8.0 17.7 0.03 0.08 0.08 68 1003.1
20260505021319 17 160 9.7 19.3 0.03 0.08 0.08 68 1003.0
20260505020835 17 144 6.4 16.1 0.03 0.08 0.08 69 1003.0
20260505020338 17 144 8.0 16.1 0.03 0.08 0.08 71 1002.9
20260505015822 17 150 6.4 16.1 0.03 0.08 0.08 72 1003.0
20260505015325 16 180 4.8 14.5 0.03 0.08 0.08 74 1003.1
20260505014835 16 149 8.0 14.5 0.03 0.08 0.08 75 1002.9
20260505014339 16 139 8.0 11.3 0.03 0.08 0.08 76 1002.9
20260505013824 16 151 4.8 8.0 0.05 0.08 0.08 75 1003.0
20260505013326 17 140 4.8 11.3 0.05 0.05 0.05 73 1003.2
20260505012815 17 173 6.4 19.3 0.05 0.05 0.05 71 1003.1
20260505012319 17 171 8.0 22.5 0.05 0.05 0.05 69 1003.1
20260505011832 17 196 9.7 22.5 0.05 0.05 0.05 67 1002.9
20260505011336 18 133 6.4 16.1 0.05 0.05 0.05 66 1003.1
20260505010825 18 198 3.2 16.1 0.05 0.05 0.05 65 1003.1
20260505010330 18 204 3.2 14.5 0.05 0.05 0.05 65 1003.1
20260505005831 18 175 6.4 20.9 0.05 0.05 0.05 64 1003.2
20260505005356 18 171 8.0 24.1 0.05 0.05 0.05 63 1003.2
20260505004819 18 251 4.8 24.1 0.05 0.05 0.05 61 1003.6
20260505004324 20 229 11.3 16.1 0.05 0.05 0.05 56 1003.6
20260505003815 21 255 6.4 14.5 0.00 0.00 0.00 49 1003.4
20260505003317 21 218 6.4 16.1 0.00 0.00 0.00 47 1002.8
20260505002850 21 217 3.2 16.1 0.00 0.00 0.00 47 1002.5
20260505002351 21 196 4.8 14.5 0.00 0.00 0.00 46 1002.6
20260505001824 21 207 8.0 14.5 0.00 0.00 0.00 46 1002.5
20260505001324 21 196 6.4 12.9 0.00 0.00 0.00 44 1002.5
20260505000830 21 188 3.2 12.9 0.00 0.00 0.00 44 1002.4
20260505000314 21 166 6.4 12.9 0.00 0.00 0.00 43 1002.5
20260504235824 21 186 4.8 17.7 0.00 0.00 0.00 42 1002.5
20260504235327 21 169 4.8 17.7 0.00 0.00 0.00 43 1002.7
20260504234821 21 190 1.6 14.5 0.00 0.00 0.00 43 1002.7
20260504234323 21 190 3.2 14.5 0.00 0.00 0.00 41 1002.6
20260504233820 21 125 3.2 12.9 0.00 0.00 0.00 41 1002.8
20260504233342 21 254 4.8 12.9 0.00 0.00 0.00 41 1002.9
20260504232836 22 298 4.8 19.3 0.00 0.00 0.00 39 1002.9
20260504232320 22 241 4.8 19.3 0.00 0.00 0.00 39 1002.9
20260504231852 22 214 6.4 27.4 0.00 0.00 0.00 38 1002.9
20260504231315 22 265 9.7 27.4 0.00 0.00 0.00 38 1002.9
20260504230814 22 233 8.0 20.9 0.00 0.00 0.00 37 1002.9
20260504230338 23 242 6.4 20.9 0.00 0.00 0.00 38 1003.0